Weather History for KTUL - September, 2013

Change the Weather History Date:

Thursday, September 26, 2013

  Actual Average Record
Temperature  
Mean Temperature 78 °F 68 °F  
Max Temperature 92 °F 80 °F 96 °F (1938)
Min Temperature 63 °F 58 °F 37 °F (1912)
Degree Days  
Heating Degree Days 0 2  
Month to date heating degree days 0 14  
Since 1 July heating degree days 0 14  
Cooling Degree Days 13 5  
Month to date cooling degree days 331 244  
Year to date cooling degree days 1960 1945  
Growing Degree Days 27 (Base 50)    
Moisture  
Dew Point 60 °F    
Average Humidity 62    
Maximum Humidity 87    
Minimum Humidity 36    
Precipitation  
Precipitation 0.00 in 0.15 in 2.37 in (1996)
Month to date precipitation 1.25 3.73  
Year to date precipitation 24.63 31.21  
Sea Level Pressure  
Sea Level Pressure 29.82 in    
Wind  
Wind Speed 11 mph (SE)    
Max Wind Speed 20 mph    
Max Gust Speed 27 mph    
Visibility 10 miles    
Events      
T = Trace of Precipitation, MM = Missing Value Source: NWS Daily Summary

Daily Weather History Graph

Daily Weather History Graph

Search for Another Location

Airport or City:

Trip Planner

Search our weather history database for the weather conditions in past years. The results will help you decide how hot, cold, wet, or windy it might be!

Date:

Astronomy

Sep. 26, 2013 Rise Set
Actual Time 7:14 AM CDT 7:14 PM CDT
Civil Twilight 6:49 AM CDT 7:39 PM CDT
Nautical Twilight 6:19 AM CDT 8:09 PM CDT
Astronomical Twilight 5:49 AM CDT 8:39 PM CDT
Moon No Moon Rise 1:58 PM CDT (9/26)
Length of Visible Light 12h 50m
Length of Day
11h 59m
Waning Gibbous, 54% of the Moon is Illuminated
Sep 26
Waning Gibbous
Sep 26
Last Quarter
Oct 4
New
Oct 11
First Quarter
Oct 18
Full

Hourly Weather History & Observations

Time (CDT) Temp. Heat Index Dew Point Humidity Pressure Visibility Wind Dir Wind Speed Gust Speed Precip Events Conditions
12:53 AM 66.9 °F - 60.1 °F 79% 29.79 in 10.0 mi SE 9.2 mph - N/A   Clear
1:53 AM 64.0 °F - 59.0 °F 84% 29.78 in 10.0 mi SE 8.1 mph - N/A   Clear
2:53 AM 68.0 °F - 60.1 °F 76% 29.78 in 10.0 mi SE 6.9 mph - N/A   Clear
3:53 AM 68.0 °F - 59.0 °F 73% 29.78 in 10.0 mi SSE 12.7 mph - N/A   Clear
4:53 AM 66.9 °F - 59.0 °F 76% 29.80 in 10.0 mi SSE 5.8 mph - N/A   Clear
5:53 AM 64.0 °F - 59.0 °F 84% 29.81 in 10.0 mi SE 4.6 mph - N/A   Clear
6:53 AM 64.0 °F - 59.0 °F 84% 29.83 in 10.0 mi SE 8.1 mph - N/A   Clear
7:53 AM 64.9 °F - 60.1 °F 84% 29.85 in 10.0 mi SE 5.8 mph - N/A   Clear
8:53 AM 70.0 °F - 60.1 °F 71% 29.86 in 10.0 mi SSE 10.4 mph - N/A   Clear
9:53 AM 75.0 °F - 61.0 °F 62% 29.87 in 10.0 mi SSE 15.0 mph 23.0 mph N/A   Clear
10:53 AM 78.1 °F - 60.1 °F 54% 29.87 in 10.0 mi SSE 13.8 mph 24.2 mph N/A   Clear
11:53 AM 82.9 °F 83.3 °F 61.0 °F 47% 29.86 in 10.0 mi SE 12.7 mph - N/A   Clear
12:53 PM 84.9 °F 85.0 °F 61.0 °F 44% 29.85 in 10.0 mi SSE 13.8 mph - N/A   Clear
1:53 PM 88.0 °F 88.4 °F 62.1 °F 42% 29.83 in 10.0 mi SSE 16.1 mph 20.7 mph N/A   Clear
2:53 PM 90.0 °F 90.3 °F 62.1 °F 39% 29.81 in 10.0 mi South 13.8 mph - N/A   Clear
3:53 PM 91.0 °F 90.9 °F 61.0 °F 36% 29.80 in 10.0 mi SSE 13.8 mph - N/A   Partly Cloudy
4:53 PM 91.0 °F 90.5 °F 60.1 °F 35% 29.79 in 10.0 mi SE 16.1 mph 21.9 mph N/A   Partly Cloudy
5:53 PM 90.0 °F 89.1 °F 59.0 °F 35% 29.79 in 10.0 mi SE 11.5 mph 24.2 mph N/A   Partly Cloudy
6:53 PM 84.9 °F 84.8 °F 60.1 °F 43% 29.80 in 10.0 mi SE 11.5 mph - N/A   Clear
7:53 PM 81.0 °F 81.9 °F 62.1 °F 52% 29.80 in 10.0 mi SE 8.1 mph - N/A   Clear
8:53 PM 81.0 °F 81.7 °F 61.0 °F 50% 29.83 in 10.0 mi SE 11.5 mph - N/A   Clear
9:53 PM 79.0 °F - 61.0 °F 54% 29.83 in 10.0 mi SE 15.0 mph - N/A   Clear
10:53 PM 78.1 °F - 61.0 °F 56% 29.84 in 10.0 mi SE 12.7 mph - N/A   Clear
11:53 PM 77.0 °F - 61.0 °F 58% 29.85 in 10.0 mi SE 11.5 mph - N/A   Clear